This is the latest recevied weather packets stored in our database for station/object K3XY-2. If no packets are shown the sender has not sent any weather packets the latest 10 day(s).
| Time | Temp. | Humidity | Pressure | Rain* | Wind** | Luminosity | Snow |
|---|---|---|---|---|---|---|---|
| 1777919347 | 22.22° C | 45% | 1010.3 hPa | 0 mm | - | - | - |
| 1777918746 | 22.22° C | 41% | 1010.5 hPa | 0 mm | - | - | - |
| 1777918146 | 21.67° C | 43% | 1010.7 hPa | 0 mm | - | - | - |
| 1777917546 | 21.67° C | 37% | 1010.9 hPa | 0 mm | - | - | - |
| 1777916947 | 22.22° C | 40% | 1011 hPa | 0 mm | - | - | - |
| 1777916346 | 21.67° C | 41% | 1011.1 hPa | 0 mm | - | - | - |
| 1777915746 | 21.11° C | 41% | 1011.3 hPa | 0 mm | - | - | - |
| 1777914546 | 21.11° C | 43% | 1011.5 hPa | 0 mm | - | - | - |
| 1777913946 | 21.67° C | 44% | 1011.8 hPa | 0 mm | - | - | - |
| 1777913346 | 21.11° C | 41% | 1011.9 hPa | 0 mm | - | - | - |
| 1777912747 | 21.67° C | 44% | 1012 hPa | 0 mm | - | - | - |
| 1777912147 | 21.11° C | 46% | 1012 hPa | 0 mm | - | - | - |
| 1777911546 | 20.56° C | 40% | 1012.2 hPa | 0 mm | - | - | - |
| 1777910946 | 20.56° C | 45% | 1012.3 hPa | 0 mm | - | - | - |
| 1777910347 | 20° C | 46% | 1012.5 hPa | 0 mm | - | - | - |
| 1777909746 | 19.44° C | 43% | 1012.6 hPa | 0 mm | - | - | - |
| 1777909146 | 19.44° C | 40% | 1012.8 hPa | 0 mm | - | - | - |
| 1777908546 | 19.44° C | 42% | 1012.9 hPa | 0 mm | - | - | - |
| 1777907946 | 19.44° C | 46% | 1013 hPa | 0 mm | - | - | - |
| 1777907346 | 18.89° C | 45% | 1013.1 hPa | 0 mm | - | - | - |
| 1777906746 | 18.33° C | 45% | 1013 hPa | 0 mm | - | - | - |
| 1777906146 | - | - | 1013.3 hPa | 0 mm | - | - | - |
| 1777905546 | - | - | 1013.3 hPa | 0 mm | - | - | - |
| 1777904946 | - | - | 1013.4 hPa | 0 mm | - | - | - |
| 1777904346 | - | - | 1013.4 hPa | 0 mm | - | - | - |
* Rain latest hour (hover to see other rain measurements)
** Current wind speed in m/s (hover to see current wind gust speed)